Regional Weather Roundup
Issued by NWS

Home | Current Version | Previous Version | Text Only | Print | Product List | Glossary On
Versions: 1 2 3 4 5 6 7 8 9 10 11 12 13 14 15 16 17 18 19 20 21 22 23 24 25 26 27 28 29 30 31 32 33 34 35 36 37 38 39 40 41 42 43 44 45 46 47 48 49 50
000
ASUS43 KLOT 310910
RWRIL

ILLINOIS REGIONAL WEATHER ROUNDUP
NATIONAL WEATHER SERVICE CHICAGO/ROMEOVILLE IL
400 AM CDT SUN AUG 31 2014

NOTE: "FAIR" INDICATES FEW OR NO CLOUDS BELOW 12,000 FEET WITH NO
SIGNIFICANT WEATHER AND/OR OBSTRUCTIONS TO VISIBILITY.

* THESE STATIONS ARE NOT UNDER NWS QUALITY CONTROL. THEY ALSO MAY NOT
  REPORT WEATHER SUCH AS PRECIPITATION OR FOG.

ILZ001-002-007-009-015-016-024-311000-
NORTHWEST ILLINOIS

CITY           SKY/WX    TMP DP  RH WIND       PRES   REMARKS
MOLINE         PTCLDY    63  61  93 CALM      29.91R FOG
STERLING*      MOCLDY    63  61  94 E3        29.93R
SAVANNA*       FOG       63  62  94 CALM      29.92R VSB 1/4
$$

ILZ003-004-008-010-011-017-018-311000-
NORTH CENTRAL ILLINOIS

CITY           SKY/WX    TMP DP  RH WIND       PRES   REMARKS
ROCKFORD       PTCLDY    63  61  93 S7        29.93R
FREEPORT*      FOG       61  60  95 CALM      29.94S VSB 1/2
ROCHELLE*      PTCLDY    62  61  97 CALM      29.93R
DE KALB*       MOCLDY    64  62  93 CALM      29.94R
PERU*          FOG       69  68  96 CALM      29.92S VSB 1
$$

ILZ005-006-012>014-019>023-311000-
NORTHEAST ILLINOIS

CITY           SKY/WX    TMP DP  RH WIND       PRES   REMARKS
CHICAGO-OHARE  CLOUDY    71  66  84 S5        29.92R
CHICAGO-MIDWAY MOCLDY    72  68  87 SW7       29.92S
AURORA         FOG       65  63  93 SE3       29.93R VSB 1/4
LANSING*         N/A    N/A N/A N/A MISG        N/A
JOLIET*        PTCLDY    66  64  94 SE3       29.94S FOG
WAUKEGAN       PTCLDY    65  63  93 CALM      29.91R
DUPAGE AIRPORT MOCLDY    69  67  93 S3        29.92S
KANKAKEE*      CLOUDY    68  67  97 SE5       29.94S
WHEELING       MOCLDY    70  66  87 CALM      29.93S
MORRIS*        CLEAR     67  67 100 CALM      29.93R FOG
ROMEOVILLE*    PTCLDY    66  66  99 CALM      29.93S
NORTHERLY ISL    N/A     72  66  81 SW3         N/A
$$

LMZ740>746-311000-
SOUTHERN LAKE MICHIGAN

STATION/POSITION SKY/WX   TEMP    WIND        PRES    VSBY  WAVE
                          AIR SEA DIR/SP/G                  HT/PER
                          (F)     (DEG/KT/KT) (MB)    (MI)  (FT/S)
SOUTHERN BUOY              70 69  240/  8/  8 1012.6R         1
WAUKEGAN HARBOR            69     240/  3/  5   N/A
HARRISON CRIB              72     200/ 12/ 13   N/A
BURNHAM HARBOR             72     210/  4/  8   N/A
CALUMET HARBOR             70     210/  3/  5 1012.3R
MICHIGAN CITY              68     160/  8/ 11   N/A
MICHIGAN CITY 6N           69 72  190/  8/ 10   N/A           1/ 3
ST. JOSEPH                 70 71  190/  8/ 12   N/A           2/ 3
$$

ILZ025>027-034>036-040-047-049-050-058-095>099-311000-
WEST-CENTRAL ILLINOIS

CITY           SKY/WX    TMP DP  RH WIND       PRES   REMARKS
QUINCY         CLEAR     70  67  90 S7        29.92R
GALESBURG*     FOG       62  62  97 CALM      29.92S VSB 1/2
MACOMB*        CLEAR     63  63 100 CALM      29.94S
JACKSONVILLE*  CLEAR     73  72  94 S6        29.93S
PITTSFIELD*    CLEAR     70  67  90 CALM      29.93S
$$

ILZ028>032-037-038-041>044-048-051>054-059>061-311000-
CENTRAL ILLINOIS

CITY           SKY/WX    TMP DP  RH WIND       PRES   REMARKS
PONTIAC        CLEAR     68  66  94 CALM      29.92S
DECATUR        CLOUDY    73  70  90 SW9       29.95S
PEORIA         PTCLDY    71  66  84 S3        29.92S
LACON*         CLEAR     69  67  93 S3        29.91R
LINCOLN*       CLOUDY    74  72  94 S6        29.90S FOG
SPRINGFIELD    PTCLDY    73  71  93 S5        29.93S
TAYLORVILLE    MOCLDY    70  68  94 S6        29.94S
$$

ILZ033-039-045-046-055>057-062-063-311000-
EAST-CENTRAL ILLINOIS

CITY           SKY/WX    TMP DP  RH WIND       PRES   REMARKS
CHAMPAIGN      CLOUDY    73  70  90 SW8       29.95S
DANVILLE*      HVY RAIN  71  70  98 S3        29.93F
RANTOUL*       CLOUDY    74  70  88 SW8       29.95F
MATTOON        CLOUDY    73  70  90 S9        29.95S
PARIS*         DRIZZLE   72  70  95 SW7       29.97S
$$

ILZ079-100>102-311000-
SOUTHWEST ILLINOIS

CITY           SKY/WX    TMP DP  RH WIND       PRES   REMARKS
BELLEVILLE     CLEAR     71  71 100 E2        29.94S
CAHOKIA*       CLEAR     71  70  96 S3        29.94S
SPARTA*        PTCLDY    72  71  97 S6        29.97S
$$

ILZ064>066-069>071-074>076-080>082-084>086-088>090-092>094-311000-
SOUTH-CENTRAL ILLINOIS

CITY           SKY/WX    TMP DP  RH WIND       PRES   REMARKS
CARBONDALE     MOCLDY    72  70  93 S5        29.97S
CAIRO*         CLOUDY    74  71  88 S5        29.98S
EFFINGHAM*     CLOUDY    72  69  88 S6        29.96S
MARION         CLOUDY    73  72  94 S3        29.99S
MT. VERNON     CLOUDY    72  66  83 S8        29.98S
CENTRALIA*     MOCLDY    72  70  94 S8        29.96F
SALEM*         CLOUDY    74  73  94 S7        29.96F
METROPOLIS*    CLOUDY    73  73 100 CALM      29.98S
$$

ILZ067-068-072-073-078-083-087-091-311000-
SOUTHEAST ILLINOIS

CITY           SKY/WX    TMP DP  RH WIND       PRES   REMARKS
LAWRENCEVILLE  CLOUDY    72  71  97 S6        29.98F FOG
FLORA*         CLOUDY    72  71  97 S6        29.97S
FAIRFIELD*     MOCLDY    73  72  94 S5        29.98R FOG
HARRISBURG*    CLOUDY    72  72 100 CALM      29.99S
ROBINSON*      CLOUDY    72  71  98 S3        29.98S
CARMI*         CLOUDY    72  72  99 CALM      29.98S FOG
$$

ABBREVIATIONS USED IN REMARKS
   TC - TEMPERATURE IN CELSIUS
  WCI - WIND CHILL INDEX
   HX - HEAT INDEX
  VSB - VISIBILITY
$$



USA.gov is the U.S. government's official web portal to all federal, state and local government web resources and services.